Location: Arnolds Mill
(42.3415°N, 73.5951°W)
Time: 12:29:27
(UTC+00:00)

STARLINK-34398 - Pass Details

Date: 23 June 2025
Orbit: 302 x 303 km, 53.2° (Epoch: 26 June)

Event Time Altitude Azimuth Distance (km) Brightness Sun altitude
Exits shadow 06:03:26 18° 338° (NNW) 847 5.2 -22.5°
Drops below altitude 10° 06:05:17 10° 24° (NNE) 1,180 6.4 -22.4°
Sets 06:07:36 0° 45° (NE) 2,003 7.5 -22.2°
